Weather History for Chino, CA

Change the Weather History Date:

Monday, October 21, 2013

  Actual Average Record
Temperature  
Mean Temperature 62 °F -  
Max Temperature 84 °F 78 °F 102 °F (2003)
Min Temperature 43 °F 48 °F 43 °F (2013)
Degree Days  
Heating Degree Days 2    
Growing Degree Days 12 (Base 50)    
Moisture  
Dew Point 47 °F    
Average Humidity 71    
Maximum Humidity 100    
Minimum Humidity 20    
Precipitation  
Precipitation 0.00 in - - ()
Sea Level Pressure  
Sea Level Pressure 29.95 in    
Wind  
Wind Speed 1 mph (West)    
Max Wind Speed 12 mph    
Max Gust Speed -    
Visibility 5 miles    
Events Fog    
Averages and records for this station are not official NWS values.
T = Trace of Precipitation, MM = Missing Value Source: NWS Daily Summary

Daily Weather History Graph

Daily Weather History Graph

Search for Another Location

Airport:

Trip Planner

Search our weather history database for the weather conditions in past years. The results will help you decide how hot, cold, wet, or windy it might be!

Date:

Astronomy

Oct. 21, 2013 Rise Set
Actual Time 7:00 AM PDT 6:08 PM PDT
Civil Twilight 6:35 AM PDT 6:34 PM PDT
Nautical Twilight 6:06 AM PDT 7:03 PM PDT
Astronomical Twilight 5:37 AM PDT 7:32 PM PDT
Moon 8:11 PM PDT (10/21) 9:33 AM PDT (10/21)
Length of Visible Light 11h 58m
Length of Day
11h 08m
Waning Gibbous, 92% of the Moon is Illuminated
Oct 21
Waning Gibbous
Oct 26
Last Quarter
Nov 3
New
Nov 9
First Quarter
Nov 17
Full

Hourly Weather History & Observations

Time (PDT) Temp. Dew Point Humidity Pressure Visibility Wind Dir Wind Speed Gust Speed Precip Events Conditions
12:53 AM 51.1 °F 46.9 °F 86% 29.95 in 3.0 mi Calm Calm - N/A   Clear
1:05 AM 51.8 °F 46.4 °F 82% 29.96 in 2.5 mi Calm Calm - N/A   Clear
1:15 AM 51.8 °F 48.2 °F 88% 29.96 in 3.0 mi Calm Calm - N/A   Clear
1:53 AM 48.9 °F 46.0 °F 90% 29.96 in 3.0 mi Calm Calm - N/A   Clear
2:53 AM 51.1 °F 48.0 °F 89% 29.95 in 3.0 mi Calm Calm - N/A   Clear
3:13 AM 48.2 °F 46.4 °F 93% 29.96 in 2.5 mi Calm Calm - N/A   Clear
3:53 AM 50.0 °F 46.9 °F 89% 29.95 in 1.2 mi Calm Calm - N/A   Clear
4:53 AM 48.0 °F 46.0 °F 93% 29.95 in 1.8 mi ENE 3.5 mph - N/A   Clear
5:23 AM 46.4 °F 44.6 °F 93% 29.96 in 2.5 mi Calm Calm - N/A   Mist
5:43 AM 46.4 °F 44.6 °F 93% 29.96 in 1.5 mi Calm Calm - N/A   Clear
5:53 AM 46.9 °F 44.1 °F 90% 29.95 in 2.0 mi Calm Calm - N/A   Clear
6:01 AM 46.4 °F 44.6 °F 93% 29.96 in 1.0 mi Calm Calm - N/A   Clear
6:05 AM 46.4 °F 44.6 °F 93% 29.96 in 0.5 mi Calm Calm - N/A Fog Fog
6:53 AM 43.0 °F 43.0 °F 100% 29.96 in 2.0 mi Calm Calm - N/A Fog Shallow Fog
7:53 AM 48.0 °F 46.0 °F 93% 29.98 in 1.0 mi Calm Calm - N/A   Clear
8:53 AM 54.0 °F 50.0 °F 86% 29.99 in 3.0 mi Calm Calm - N/A   Clear
9:53 AM 62.1 °F 48.9 °F 62% 29.99 in 4.0 mi Calm Calm - N/A   Haze
10:53 AM 69.1 °F 48.0 °F 47% 29.98 in 5.0 mi Calm Calm - N/A   Haze
11:53 AM 73.9 °F 44.1 °F 34% 29.96 in 7.0 mi Calm Calm - N/A   Clear
12:53 PM 80.1 °F 44.1 °F 28% 29.94 in 10.0 mi Calm Calm - N/A   Clear
1:53 PM 82.9 °F 44.1 °F 25% 29.91 in 10.0 mi WNW 8.1 mph - N/A   Clear
2:53 PM 82.9 °F 37.9 °F 20% 29.90 in 10.0 mi WSW 9.2 mph - N/A   Clear
3:53 PM 82.0 °F 41.0 °F 23% 29.89 in 10.0 mi West 11.5 mph - N/A   Clear
4:53 PM 79.0 °F 48.0 °F 34% 29.89 in 7.0 mi WSW 10.4 mph - N/A   Clear
5:53 PM 73.0 °F 48.0 °F 41% 29.90 in 10.0 mi WSW 8.1 mph - N/A   Clear
6:53 PM 64.9 °F 48.0 °F 54% 29.93 in 10.0 mi West 5.8 mph - N/A   Clear
7:53 PM 64.0 °F 51.1 °F 63% 29.95 in 7.0 mi Calm Calm - N/A   Clear
8:53 PM 61.0 °F 52.0 °F 72% 29.97 in 6.0 mi Calm Calm - N/A   Haze
9:53 PM 60.1 °F 52.0 °F 75% 29.99 in 5.0 mi Calm Calm - N/A   Haze
10:53 PM 57.9 °F 52.0 °F 81% 29.99 in 5.0 mi Calm Calm - N/A   Haze
11:53 PM 55.9 °F 52.0 °F 87% 29.99 in 5.0 mi Calm Calm - N/A   Clear